weather.gov     
National Weather Service

Terminal Aerodrome Forecast
NWS Homepage
This page is being discontinued on March 12, 2014.
The same data is available at this site. Please update your bookmarks.
Thank you, and we apologize for the inconvenience.
Please send an email to SR-SRH.Webmaster@noaa.gov with any concerns.


Current Version
Previous Version:    01  02  03  04  05  06  07  08  09  10  11  12  13  14  
[Printable]
303
FTUS41 KBOX 211504 AAA
TAFORH
TAF AMD
KORH 211504Z 2115/2212 08004KT P6SM SCT008 BKN025
     FM211900 06004KT P6SM BKN010
     FM220400 36007KT 2SM BR BKN008
     FM221000 36008KT 3SM BR OVC008=


303
FTUS41 KBOX 211504 AAA
TAFORH
TAF AMD
KORH 211504Z 2115/2212 08004KT P6SM SCT008 BKN025
     FM211900 06004KT P6SM BKN010
     FM220400 36007KT 2SM BR BKN008
     FM221000 36008KT 3SM BR OVC008=




U.S. Dept. of Commerce
NOAA National Weather Service
1325 East West Highway
Silver Spring, MD 20910
E-mail: w-nws.webmaster@noaa.gov
Page last modified: May 16, 2007
NATIONAL WEATHER SERVICE: for Safety, for Work, for Fun - FOR LIFE